STARLINK-32492, 62050

Orbit data source: Space-Track

STARLINK-32492, 62050 is a payload satellite owned by SpaceX/Seattle (US) in LEO that was launched on Thu, 21 Nov 2024 UTC via an FALCON 9 launch vehicle from the Air Force Eastern Test Range (AFETR). Payloads include a variety of satellites, spacecraft, and rockets equipped with specific instruments for various scientific and technological missions. These include communications satellites like Starlink; space stations such as the ISS; scientific satellites like the Hubble; Earth observation satellites from companies like Planet Labs, Umbra, and HawkEye 360; GPS; miniature CubeSats for education and research; and military/defense satellites.

Loading next visibility...
STARLINK-32492 details
Identifier
62050, 2024-216U
Orbit
LEO
Last TLE update11 hours ago
Origin
Flag of USSpaceX/Seattle (US)
ManufacturerSpaceX/Seattle
MissionOperational spacecraft
Bus & MotorSTARLINK V2M, Unknown motor
Mass730 kg wet, ~700 kg dry
Launch date (UTC)
2024-11-21 (3 weeks ago)
Launch vehicle
FALCON 9
Launch site
Air Force Eastern Test Range (AFETR)
Object type
Payload
Rocket body
Debris
Shape & HBRUnknown
Radar Cross SectionLarge (>1 m²)

Expand to show TLE details & history

TLE from 11 hours ago
0 STARLINK-32492
1 62050U 24216U   24348.50002315 -.00040370  00000-0 -68524-3 0  9999
2 62050  42.9996 307.3387 0001430 286.9601 197.7885 15.50603682  3458
Epoch: 2024-12-13T12:00Z
Definitive object data (Epoch: 2024-12-13T12:00:02Z)
Latitude34.21484°
Longitude178.18528°
Altitude417.184 km
Speed7.665 km/s
True Right ascension05h 23m 26s
True Declination34° 02' 50"
Sunlit
Object was in full shadow at TLE epoch
Visualization TLE readout
Latitude16.92595°
Longitude-156.94122°
Altitude414.899 km
Speed7.665 km/s
Apparent Right ascension08h 05m 22s
Apparent Declination-10° 59' 36"
Sunlit
Object is in full shadow
Visualization observer readout
Local Sidereal Time21:29:03
Azimuth38.412° NE
Elevation-55.652°
Doppler factor1
Orbital elements
Apogee altitude417.899 km
Perigee altitude415.955 km
Semi-major axis6,795.064 km
Eccentricity0.000143
Inclination42.9996°
RAAN307.3387°
Arg. of periapsis286.9601°
True anomaly197.78349°
Mean anomaly197.7885°
Eccentric anomaly197.786°
Mean motion3.87483 °/min
BSTAR-0.00068524
Orbital period92.91 mins
Loading maneuver chart data...
Loading historical data...
Loading historical data...
Loading historical data...
Loading historical data...
Loading historical data...
Loading historical data...
Loading historical data...

STARLINK-32492 Visibility forecast

Observer location: undefined°, undefined

Span
Click to sort rows by Start time (UTC) header in descending order
Start Az.
Max El. time (UTC)
Max El. Az.
Max El.
End time (UTC)
End Az.
5 mins2024-12-14 01:38:04.685Z238.893° WSW2024-12-14 01:40:04.685Z130.117° SE43.224°2024-12-14 01:43:04.685Z74.308° E
4 mins2024-12-14 03:16:04.685Z295.864° NW2024-12-14 03:17:04.685Z330.951° NNW35.752°2024-12-14 03:20:04.685Z69.171° E
5 mins2024-12-14 04:53:04.685Z294.634° NW2024-12-14 04:55:04.685Z9.472° NNE42.396°2024-12-14 04:58:04.685Z95.925° ESE
4 mins2024-12-14 06:31:04.685Z253.349° W2024-12-14 06:32:04.685Z222.875° SW27.734°2024-12-14 06:35:04.685Z147.039° SSE
|